Location: Champignolles
(47.0543°N, 4.5663°E)
Time: 05:28:26
(UTC+00:00)

N. Korean satellite - Pass Details

Date: 08 December 2021
Orbit: 447 x 491 km, 97.3° (Epoch: 25 January)

Event Time Altitude Azimuth Distance (km) Brightness Sun altitude
Rises 06:01:32 0° 357° (N) 2,464 9.9 -11.9°
Reaches altitude 10° 06:04:01 10° 338° (NNW) 1,584 8.8 -11.5°
Maximum altitude 06:06:23 18° 294° (WNW) 1,180 7.9 -11.2°
Drops below altitude 10° 06:08:43 10° 250° (WSW) 1,576 8.7 -10.8°
Sets 06:11:11 0° 230° (SW) 2,445 9.9 -10.4°
